Date String (YYYY-MM-DD hh:mm:ss) UTC,Instrument flags,Ambient pressure (hPa),Sample flow (lpm),Bypass flow (lpm),Sample temperature (°C),Ambient temperature (°C),ASC tube jacket temperature (°C),LED temperature (°C),Box temperature (°C),Sample RH (%),Span deviation,Mass concentration (μg/m³),Mass concentration (μg/m³),Mass concentration (μg/m³)
DateTimeUTC,F1_M11,P_M11,Q1_M11,Q2_M11,T1_M11,T2_M11,T3_M11,T4_M11,T5_M11,U1_M11,ZSPAN_M11,X0_M11,X2_M11,X1_M11
2021-11-28 19:00:00,,0829.5,5.01,0.00,27.0,26.2,00.0,35.8,28.8,12.5,0000.0,0011.14,0002.57,0001.49
2021-11-28 19:01:00,,0829.5,4.98,0.00,27.0,26.2,00.0,35.8,28.8,12.5,0000.0,0010.51,0002.63,0001.51
2021-11-28 19:02:00,,0829.5,5.01,0.00,27.0,26.2,00.0,35.8,28.9,12.5,0000.0,0011.34,0002.67,0001.53
2021-11-28 19:03:00,,0829.5,4.99,0.00,27.0,26.2,00.0,35.8,28.9,12.5,0000.0,0011.44,0002.76,0001.55
2021-11-28 19:04:00,,0829.4,5.02,0.00,27.0,26.2,00.0,35.9,28.9,12.5,0000.0,0012.58,0002.84,0001.59
2021-11-28 19:05:00,,0829.5,5.00,0.00,27.0,26.2,00.0,35.9,28.9,12.5,0000.0,0013.38,0002.92,0001.63
2021-11-28 19:06:00,,0829.5,5.00,0.00,27.0,26.2,00.0,35.9,28.9,12.4,0000.0,0013.04,0002.96,0001.64
2021-11-28 19:07:00,,0829.4,5.00,0.00,27.1,26.2,00.0,35.9,28.9,12.4,0000.0,0012.52,0002.96,0001.66
2021-11-28 19:08:00,,0829.4,5.02,0.00,27.1,26.3,00.0,35.9,28.9,12.4,0000.0,0012.61,0003.07,0001.67
2021-11-28 19:09:00,,0829.4,4.99,0.00,27.1,26.3,00.0,35.9,29.0,12.4,0000.0,0012.60,0003.09,0001.66
2021-11-28 19:10:00,,0829.5,5.01,0.00,27.1,26.3,00.0,35.9,29.0,12.4,0000.0,0011.58,0003.01,0001.66
2021-11-28 19:11:00,,0829.5,5.00,0.00,27.1,26.3,00.0,36.0,29.0,12.4,0000.0,0011.34,0003.03,0001.66
2021-11-28 19:12:00,,0829.5,5.02,0.00,27.1,26.3,00.0,36.0,29.0,12.4,0000.0,0013.10,0003.01,0001.66
2021-11-28 19:13:00,,0829.5,4.99,0.00,27.2,26.3,00.0,36.0,29.0,12.4,0000.0,0012.46,0002.96,0001.64
2021-11-28 19:14:00,,0829.6,5.00,0.00,27.2,26.4,00.0,36.0,29.1,12.4,0000.0,0011.86,0002.91,0001.64
2021-11-28 19:15:00,,0829.5,5.01,0.00,27.2,26.4,00.0,36.0,29.1,12.4,0000.0,0011.02,0002.89,0001.64
2021-11-28 19:16:00,,0829.5,4.98,0.00,27.2,26.4,00.0,36.0,29.1,12.4,0000.0,0010.22,0002.90,0001.62
2021-11-28 19:17:00,,0829.5,5.02,0.00,27.2,26.4,00.0,36.1,29.1,12.4,0000.0,0009.80,0002.87,0001.62
2021-11-28 19:18:00,,0829.6,4.98,0.00,27.2,26.4,00.0,36.1,29.1,12.3,0000.0,0010.51,0002.90,0001.62
2021-11-28 19:19:00,,0829.4,5.00,0.00,27.2,26.4,00.0,36.1,29.1,12.4,0000.0,0011.54,0002.83,0001.61
2021-11-28 19:20:00,,0829.5,5.01,0.00,27.3,26.4,00.0,36.1,29.1,12.4,0000.0,0012.25,0002.82,0001.62
2021-11-28 19:21:00,,0829.5,5.01,0.00,27.3,26.5,00.0,36.1,29.1,12.3,0000.0,0012.87,0002.81,0001.62
2021-11-28 19:22:00,,0829.5,4.99,0.00,27.3,26.5,00.0,36.1,29.1,12.3,0000.0,0014.04,0002.79,0001.63
2021-11-28 19:23:00,,0829.5,5.01,0.00,27.3,26.5,00.0,36.1,29.2,12.3,0000.0,0012.96,0002.88,0001.64
2021-11-28 19:24:00,,0829.5,5.00,0.00,27.3,26.5,00.0,36.2,29.2,12.3,0000.0,0012.38,0002.92,0001.67
2021-11-28 19:25:00,,0829.5,5.00,0.00,27.3,26.5,00.0,36.2,29.2,12.3,0000.0,0012.72,0002.88,0001.70
2021-11-28 19:26:00,,0829.5,5.00,0.00,27.3,26.5,00.0,36.2,29.2,12.3,0000.0,0012.01,0002.87,0001.73
2021-11-28 19:27:00,,0829.5,5.00,0.00,27.3,26.6,00.0,36.2,29.2,12.3,0000.0,0012.04,0002.87,0001.78
2021-11-28 19:28:00,,0829.5,5.00,0.00,27.4,26.6,00.0,36.2,29.2,12.3,0000.0,0012.49,0002.91,0001.82
2021-11-28 19:29:00,,0829.5,5.00,0.00,27.4,26.6,00.0,36.2,29.2,12.3,0000.0,0012.89,0002.91,0001.84
2021-11-28 19:30:00,,0829.5,5.01,0.00,27.4,26.6,00.0,36.3,29.2,12.2,0000.0,0012.47,0002.93,0001.86
2021-11-28 19:31:00,,0829.5,5.00,0.00,27.4,26.6,00.0,36.3,29.3,12.2,0000.0,0011.59,0002.93,0001.88
2021-11-28 19:32:00,,0829.5,5.00,0.00,27.4,26.6,00.0,36.3,29.3,12.3,0000.0,0011.16,0002.98,0001.90
2021-11-28 19:33:00,,0829.5,5.00,0.00,27.4,26.7,00.0,36.3,29.3,12.2,0000.0,0009.95,0002.96,0001.90
2021-11-28 19:34:00,,0829.5,5.00,0.00,27.5,26.7,00.0,36.3,29.3,12.1,0000.0,0009.54,0002.91,0001.90
2021-11-28 19:35:00,,0829.5,5.01,0.00,27.5,26.7,00.0,36.3,29.3,12.1,0000.0,0009.51,0002.87,0001.88
2021-11-28 19:36:00,,0829.5,5.00,0.00,27.5,26.7,00.0,36.4,29.3,12.1,0000.0,0009.19,0002.87,0001.87
2021-11-28 19:37:00,,0829.5,5.00,0.00,27.5,26.8,00.0,36.4,29.3,12.1,0000.0,0009.41,0002.93,0001.85
2021-11-28 19:38:00,,0829.5,5.00,0.00,27.5,26.8,00.0,36.4,29.4,12.2,0000.0,0009.82,0002.94,0001.83
2021-11-28 19:39:00,,0829.5,4.99,0.00,27.5,26.8,00.0,36.4,29.4,12.1,0000.0,0009.60,0002.90,0001.83
2021-11-28 19:40:00,,0829.5,5.00,0.00,27.5,26.8,00.0,36.4,29.4,12.1,0000.0,0008.56,0002.88,0001.83
2021-11-28 19:41:00,,0829.5,5.01,0.00,27.6,26.8,00.0,36.4,29.4,12.1,0000.0,0007.99,0002.85,0001.82
2021-11-28 19:42:00,,0829.5,5.00,0.00,27.6,26.9,00.0,36.5,29.4,12.1,0000.0,0008.85,0002.84,0001.82
2021-11-28 19:43:00,,0829.5,5.00,0.00,27.6,26.9,00.0,36.5,29.4,12.1,0000.0,0008.95,0002.87,0001.84
2021-11-28 19:44:00,,0829.5,5.01,0.00,27.6,26.9,00.0,36.5,29.4,12.1,0000.0,0009.14,0003.00,0001.90
2021-11-28 19:45:00,,0829.5,4.99,0.00,27.6,26.9,00.0,36.5,29.4,12.1,0000.0,0009.50,0003.13,0001.97
2021-11-28 19:46:00,,0829.5,5.01,0.00,27.6,26.9,00.0,36.5,29.5,12.1,0000.0,0009.98,0003.19,0002.04
2021-11-28 19:47:00,,0829.4,5.01,0.00,27.7,26.9,00.0,36.5,29.5,12.1,0000.0,0010.79,0003.29,0002.13
2021-11-28 19:48:00,,0829.3,4.99,0.00,27.7,26.9,00.0,36.6,29.6,12.1,0000.0,0011.04,0003.36,0002.26
2021-11-28 19:49:00,,0829.3,5.01,0.00,27.7,26.9,00.0,36.6,29.5,12.1,0000.0,0011.15,0003.45,0002.38
2021-11-28 19:50:00,,0829.3,4.99,0.00,27.7,26.9,00.0,36.6,29.5,12.1,0000.0,0012.31,0003.54,0002.49
2021-11-28 19:51:00,,0829.4,5.01,0.00,27.7,26.9,00.0,36.6,29.6,12.1,0000.0,0012.96,0003.59,0002.59
2021-11-28 19:52:00,,0829.3,5.00,0.00,27.7,26.9,00.0,36.6,29.5,12.0,0000.0,0012.88,0003.63,0002.68
2021-11-28 19:53:00,,0829.4,5.00,0.00,27.7,26.9,00.0,36.6,29.5,11.9,0000.0,0012.15,0003.70,0002.76
2021-11-28 19:54:00,,0829.4,5.00,0.00,27.7,26.9,00.0,36.6,29.5,11.9,0000.0,0012.32,0003.75,0002.81
2021-11-28 19:55:00,,0829.4,5.01,0.00,27.7,26.9,00.0,36.6,29.5,11.9,0000.0,0012.55,0003.70,0002.84
2021-11-28 19:56:00,,0829.3,5.01,0.00,27.7,26.9,00.0,36.6,29.5,11.9,0000.0,0012.68,0003.64,0002.86
2021-11-28 19:57:00,,0829.4,5.00,0.00,27.7,26.9,00.0,36.6,29.5,11.9,0000.0,0012.26,0003.61,0002.87
2021-11-28 19:58:00,,0829.3,4.99,0.00,27.7,26.9,00.0,36.6,29.5,11.9,0000.0,0011.63,0003.58,0002.87
2021-11-28 19:59:00,,0829.4,5.01,0.00,27.7,26.9,00.0,36.6,29.6,11.9,0000.0,0012.01,0003.54,0002.82
